Scappoose, OR

1:21 AM PDT on July 23, 2017 (GMT -0700)
Scappoose Industrial

Weather History for KSPB - November, 2012

Change the Weather History Date:

Thursday, November 8, 2012

  Actual Average Record
Temperature  
Mean Temperature 42 °F -  
Max Temperature 50 °F - 68 °F (2016)
Min Temperature 34 °F - 30 °F (2001)
Degree Days  
Heating Degree Days 23    
Month to date heating degree days 99  
Since 1 July heating degree days 625  
Cooling Degree Days 0    
Month to date cooling degree days 0  
Year to date cooling degree days 245  
Moisture  
Dew Point 39 °F    
Average Humidity 86    
Maximum Humidity 100    
Minimum Humidity 71    
Precipitation  
Precipitation 0.00 in - 0.44 in (2000)
Month to date precipitation 0.71  
Year to date precipitation 37.67  
Sea Level Pressure  
Sea Level Pressure 29.81 in    
Wind  
Wind Speed 1 mph (NNE)    
Max Wind Speed 7 mph    
Max Gust Speed 8 mph    
Visibility 10 miles    
Events      
T = Trace of Precipitation, MM = Missing Value Source: NWS Daily Summary

Daily Weather History Graph

Daily Weather History Graph

Search for Another Location

Airport or City:

Trip Planner

Search our weather history database for the weather conditions in past years. The results will help you decide how hot, cold, wet, or windy it might be!

Date:

Astronomy

Nov. 08, 2012 Rise Set
Actual Time 7:02 AM PST 4:47 PM PST
Civil Twilight 6:30 AM PST 5:19 PM PST
Nautical Twilight 5:54 AM PST 5:54 PM PST
Astronomical Twilight 5:19 AM PST 6:29 PM PST
Moon 12:45 AM PST (11/8) 1:47 PM PST (11/8)
Length of Visible Light 10h 48m
Length of Day
9h 45m
Waning Crescent, 32% of the Moon is Illuminated
Nov 8
Waning Crescent
Nov 13
New
Nov 20
First Quarter
Nov 28
Full
Dec 6
Last Quarter

Hourly Weather History & Observations

Time (PST) Temp. Windchill Dew Point Humidity Pressure Visibility Wind Dir Wind Speed Gust Speed Precip Events Conditions
12:53 AM 39.9 °F - 37.9 °F 93% 29.91 in 10.0 mi Calm Calm - N/A   Overcast
1:05 AM 39.2 °F - 37.4 °F 93% 29.91 in 5.0 mi Calm Calm - N/A   Overcast
1:53 AM 41.0 °F - 39.0 °F 93% 29.90 in 10.0 mi Calm Calm - N/A   Overcast
2:53 AM 41.0 °F - 39.9 °F 96% 29.88 in 10.0 mi Calm Calm - N/A   Overcast
3:53 AM 42.1 °F - 39.9 °F 92% 29.85 in 10.0 mi Calm Calm - N/A   Overcast
4:53 AM 42.1 °F - 39.9 °F 92% 29.84 in 10.0 mi Calm Calm - N/A   Overcast
5:53 AM 42.1 °F - 39.9 °F 92% 29.82 in 10.0 mi Calm Calm - N/A   Overcast
6:31 AM 41.0 °F - 39.2 °F 93% 29.81 in 10.0 mi Calm Calm - N/A   Overcast
6:53 AM 39.9 °F 37.8 °F 37.9 °F 93% 29.81 in 10.0 mi North 3.5 mph - N/A   Overcast
7:41 AM 39.2 °F - 37.4 °F 93% 29.80 in 10.0 mi Calm Calm - N/A   Mostly Cloudy
7:53 AM 39.9 °F - 37.9 °F 93% 29.81 in 10.0 mi Calm Calm - N/A   Overcast
8:00 AM 39.2 °F - 37.4 °F 93% 29.80 in 10.0 mi Calm Calm - N/A   Overcast
8:53 AM 43.0 °F - 39.9 °F 89% 29.80 in 10.0 mi Calm Calm - N/A   Mostly Cloudy
9:05 AM 44.6 °F - 41.0 °F 87% 29.79 in 10.0 mi Calm Calm - N/A   Scattered Clouds
9:15 AM 44.6 °F - 39.2 °F 81% 29.79 in 10.0 mi Calm Calm - N/A   Partly Cloudy
9:51 AM 44.6 °F - 41.0 °F 87% 29.79 in 10.0 mi Calm Calm - N/A   Mostly Cloudy
9:53 AM 45.0 °F - 41.0 °F 86% 29.79 in 10.0 mi Calm Calm - N/A   Mostly Cloudy
10:01 AM 44.6 °F 43.1 °F 41.0 °F 87% 29.79 in 10.0 mi NNE 3.5 mph - N/A   Mostly Cloudy
10:15 AM 46.4 °F 44.3 °F 41.0 °F 81% 29.78 in 10.0 mi Variable 4.6 mph - N/A   Mostly Cloudy
10:29 AM 44.6 °F 42.2 °F 39.2 °F 81% 29.78 in 10.0 mi ENE 4.6 mph - N/A   Mostly Cloudy
10:41 AM 44.6 °F 42.2 °F 39.2 °F 81% 29.78 in 10.0 mi ENE 4.6 mph - N/A   Mostly Cloudy
10:53 AM 45.0 °F - 39.9 °F 82% 29.79 in 10.0 mi Calm Calm - N/A   Overcast
11:23 AM 44.6 °F 41.4 °F 39.2 °F 81% 29.79 in 10.0 mi East 5.8 mph - N/A   Overcast
11:53 AM 45.0 °F - 39.9 °F 82% 29.78 in 10.0 mi Calm Calm - N/A   Overcast
12:08 PM 44.6 °F - 39.2 °F 81% 29.78 in 10.0 mi Calm Calm - N/A   Mostly Cloudy
12:53 PM 48.9 °F - 42.1 °F 77% 29.78 in 10.0 mi Calm Calm - N/A   Overcast
1:53 PM 48.9 °F - 39.9 °F 71% 29.76 in 10.0 mi NNE 4.6 mph - N/A   Overcast
2:53 PM 50.0 °F - 41.0 °F 71% 29.77 in 10.0 mi SSE 4.6 mph - N/A   Scattered Clouds
3:53 PM 46.9 °F - 39.9 °F 77% 29.78 in 10.0 mi Calm Calm - N/A   Partly Cloudy
4:53 PM 43.0 °F 41.3 °F 39.9 °F 89% 29.78 in 10.0 mi WSW 3.5 mph - N/A   Partly Cloudy
5:53 PM 41.0 °F 39.0 °F 37.9 °F 89% 29.79 in 10.0 mi West 3.5 mph - N/A   Clear
6:53 PM 39.9 °F - 36.0 °F 86% 29.80 in 10.0 mi Calm Calm - N/A   Clear
7:53 PM 39.0 °F - 36.0 °F 89% 29.81 in 10.0 mi Calm Calm - N/A   Clear
8:53 PM 39.9 °F 35.8 °F 36.0 °F 86% 29.82 in 10.0 mi NNW 5.8 mph - N/A   Clear
9:53 PM 37.0 °F - 34.0 °F 89% 29.82 in 10.0 mi Calm Calm - N/A   Clear
10:53 PM 35.1 °F - 33.1 °F 92% 29.83 in 9.0 mi Calm Calm - N/A   Clear
11:53 PM 34.0 °F - 33.1 °F 96% 29.85 in 4.0 mi Calm Calm - N/A   Clear